Springfield, IL

1:44 PM CST on December 05, 2016 (GMT -0600)
Capital

Weather History for KSPI - February, 2014

Change the Weather History Date:

Sunday, February 16, 2014

  Actual Average Record
Temperature  
Mean Temperature 23 °F 31 °F  
Max Temperature 27 °F 40 °F 66 °F (1911)
Min Temperature 19 °F 23 °F -11 °F (2007)
Degree Days  
Heating Degree Days 42 34  
Month to date heating degree days 833 571  
Since 1 July heating degree days 4529 3897  
Cooling Degree Days 0 0  
Month to date cooling degree days 0 0  
Year to date cooling degree days 0 0  
Moisture  
Dew Point 16 °F    
Average Humidity 72    
Maximum Humidity 81    
Minimum Humidity 63    
Precipitation  
Precipitation 0.00 in 0.06 in 1.89 in (1976)
Month to date precipitation 1.94 0.96  
Year to date precipitation 4.18 2.78  
Snow  
Snow 0.00 in 0.20 in 4.50 in (1993)
Month to date snowfall 14.5 3.4  
Since 1 July snowfall 40.8 16.0  
Snow Depth 10.00 in    
Sea Level Pressure  
Sea Level Pressure 30.16 in    
Wind  
Wind Speed 9 mph (North)    
Max Wind Speed 20 mph    
Max Gust Speed 23 mph    
Visibility 8 miles    
Events      
T = Trace of Precipitation, MM = Missing Value Source: NWS Daily Summary

Daily Weather History Graph

Daily Weather History Graph

Search for Another Location

Airport or City:

Trip Planner

Search our weather history database for the weather conditions in past years. The results will help you decide how hot, cold, wet, or windy it might be!

Date:

Astronomy

Feb. 16, 2014 Rise Set
Actual Time 6:50 AM CST 5:36 PM CST
Civil Twilight 6:22 AM CST 6:03 PM CST
Nautical Twilight 5:50 AM CST 6:35 PM CST
Astronomical Twilight 5:19 AM CST 7:06 PM CST
Moon 7:32 PM CST (2/16) 7:19 AM CST (2/16)
Length of Visible Light 11h 41m
Length of Day
10h 46m
Full, 97% of the Moon is Illuminated
Feb 16
Full
Feb 22
Last Quarter
Mar 1
New
Mar 8
First Quarter
Mar 16
Full

Hourly Weather History & Observations

Time (CST) Temp. Windchill Dew Point Humidity Pressure Visibility Wind Dir Wind Speed Gust Speed Precip Events Conditions
12:52 AM 27.0 °F 21.6 °F 19.0 °F 72% 29.98 in 10.0 mi SW 4.6 mph - N/A   Overcast
1:38 AM 24.8 °F 20.5 °F 17.6 °F 74% 29.96 in 9.0 mi SW 3.5 mph - N/A   Mostly Cloudy
1:52 AM 24.1 °F 17.0 °F 19.0 °F 81% 29.99 in 8.0 mi WSW 5.8 mph - N/A   Overcast
2:48 AM 26.6 °F 18.2 °F 19.4 °F 74% 29.98 in 10.0 mi West 8.1 mph - N/A   Overcast
2:52 AM 27.0 °F 18.0 °F 19.9 °F 75% 30.00 in 10.0 mi West 9.2 mph - N/A   Overcast
3:10 AM 26.6 °F 18.2 °F 19.4 °F 74% 29.98 in 10.0 mi WNW 8.1 mph - N/A   Overcast
3:52 AM 27.0 °F 18.7 °F 19.0 °F 72% 30.02 in 10.0 mi NW 8.1 mph - N/A   Overcast
4:52 AM 27.0 °F 15.2 °F 18.0 °F 69% 30.06 in 9.0 mi NW 15.0 mph - N/A   Overcast
5:52 AM 25.0 °F 12.6 °F 17.1 °F 72% 30.09 in 9.0 mi North 15.0 mph - N/A   Overcast
6:52 AM 23.0 °F 10.6 °F 16.0 °F 74% 30.11 in 8.0 mi North 13.8 mph - N/A   Overcast
7:52 AM 23.0 °F 11.7 °F 15.1 °F 72% 30.15 in 7.0 mi North 11.5 mph - N/A   Overcast
8:52 AM 23.0 °F 12.4 °F 16.0 °F 74% 30.18 in 7.0 mi North 10.4 mph - N/A   Overcast
9:52 AM 24.1 °F 12.0 °F 16.0 °F 71% 30.22 in 7.0 mi North 13.8 mph - N/A   Mostly Cloudy
10:52 AM 24.1 °F 14.4 °F 16.0 °F 71% 30.26 in 7.0 mi North 9.2 mph - N/A   Overcast
11:52 AM 25.0 °F 16.3 °F 16.0 °F 69% 30.27 in 6.0 mi NNW 8.1 mph - N/A   Haze
12:52 PM 25.0 °F 18.1 °F 15.1 °F 66% 30.26 in 9.0 mi NW 5.8 mph - N/A   Overcast
1:52 PM 26.1 °F 17.6 °F 16.0 °F 66% 30.25 in 8.0 mi NE 8.1 mph - N/A   Mostly Cloudy
2:36 PM 26.6 °F 19.1 °F 15.8 °F 64% 30.22 in 8.0 mi ENE 6.9 mph - N/A   Scattered Clouds
2:52 PM 26.1 °F 20.5 °F 16.0 °F 66% 30.25 in 8.0 mi NE 4.6 mph - N/A   Clear
3:52 PM 25.0 °F 20.7 °F 15.1 °F 66% 30.25 in 8.0 mi NE 3.5 mph - N/A   Clear
4:52 PM 21.9 °F 15.7 °F 12.9 °F 68% 30.27 in 8.0 mi NNE 4.6 mph - N/A   Clear
5:52 PM 21.0 °F 12.4 °F 12.9 °F 71% 30.27 in 8.0 mi East 6.9 mph - N/A   Clear
6:52 PM 19.0 °F 11.1 °F 12.0 °F 74% 30.28 in 8.0 mi ESE 5.8 mph - N/A   Clear
7:52 PM 21.9 °F 14.5 °F 14.0 °F 72% 30.27 in 7.0 mi East 5.8 mph - N/A   Clear
8:52 PM 21.9 °F 12.5 °F 15.1 °F 75% 30.25 in 7.0 mi East 8.1 mph - N/A   Clear
9:52 PM 21.9 °F 11.7 °F 12.9 °F 68% 30.27 in 9.0 mi SE 9.2 mph - N/A   Clear
10:52 PM 19.9 °F 8.6 °F 12.9 °F 74% 30.24 in 8.0 mi ESE 10.4 mph - N/A   Scattered Clouds
11:52 PM 21.0 °F 7.6 °F 12.9 °F 71% 30.22 in 9.0 mi ESE 15.0 mph - N/A   Mostly Cloudy